Location: Apollinopolis Magna
(24.9792°N, 32.8772°E)
Time: 03:41:18
(UTC+00:00)

Meteor 1-27 Rocket - Pass Details

Date: 02 March 2021
Orbit: 830 x 909 km, 81.3° (Epoch: 12 April)

Event Time Altitude Azimuth Distance (km) Brightness Sun altitude
Rises 16:04:04 0° 353° (N) 3,373 6.8 -3.7°
Reaches altitude 10° 16:06:28 10° 354° (N) 2,441 6.1 -4.3°
Maximum altitude 16:12:00 87° 83° (E) 843 3.7 -5.5°
Drops below altitude 10° 16:17:35 10° 173° (S) 2,465 6.1 -6.8°
Sets 16:20:01 0° 174° (S) 3,409 6.8 -7.3°
